EW6674 Weather Reports


time (UTC)temp
C
wind
direction
speed
KPH
gust
KPH
rain 1hr
cm
rain 24hr
cm
rain mn
cm
humidity
%
barometer
mb
20260506214600 15 166 3.2 4.8 0.00 0.69 0.64 83 1009.0
20260506213111 15 165 0.0 4.8 0.00 0.69 0.64 83 1009.1
20260506211600 15 166 1.6 4.8 0.00 0.69 0.64 83 1009.1
20260506210106 15 165 1.6 8.0 0.00 0.69 0.64 82 1009.1
20260506204606 15 157 1.6 9.7 0.00 0.69 0.64 81 1009.2
20260506203057 15 195 3.2 6.4 0.00 0.69 0.64 79 1009.2
20260506201557 15 197 4.8 11.3 0.00 0.69 0.64 78 1009.2
20260506200056 16 177 3.2 8.0 0.00 0.69 0.64 75 1009.1
20260506194556 16 182 1.6 3.2 0.00 0.69 0.64 74 1008.8
20260506193055 16 182 1.6 9.7 0.00 0.69 0.64 74 1008.5
20260506191600 16 190 6.4 14.5 0.00 0.69 0.64 74 1008.3
20260506190055 16 182 4.8 14.5 0.00 0.69 0.64 73 1008.0
20260506184605 16 199 6.4 12.9 0.00 0.71 0.64 73 1008.1
20260506183053 16 198 8.0 19.3 0.00 0.71 0.64 73 1008.1
20260506181552 16 180 6.4 17.7 0.00 0.71 0.64 73 1008.0
20260506180052 16 161 6.4 22.5 0.00 0.71 0.64 73 1008.0
20260506174549 16 190 9.7 24.1 0.00 0.71 0.64 73 1007.9
20260506173051 16 192 8.0 14.5 0.00 0.71 0.64 73 1007.9
20260506171558 16 216 8.0 16.1 0.00 0.71 0.64 73 1007.7
20260506170052 16 200 11.3 20.9 0.00 0.71 0.64 74 1007.6
20260506164549 16 190 8.0 20.9 0.03 0.71 0.64 74 1007.6
20260506163047 16 205 11.3 20.9 0.08 0.71 0.64 75 1007.7
20260506161546 16 187 6.4 16.1 0.10 0.71 0.64 76 1007.7
20260506160058 16 190 8.0 22.5 0.10 0.71 0.64 78 1007.7
20260506154546 16 187 11.3 24.1 0.08 0.71 0.61 79 1007.6
20260506153044 17 180 9.7 19.3 0.03 0.69 0.56 81 1007.7
20260506151544 17 167 16.1 24.1 0.00 0.66 0.53 83 1007.7
20260506150042 17 172 8.0 19.3 0.00 0.66 0.53 83 1007.9
20260506144556 17 177 4.8 22.5 0.00 0.76 0.53 82 1007.9
20260506143041 17 178 14.5 24.1 0.00 0.76 0.53 82 1008.1
20260506141539 17 171 11.3 24.1 0.00 0.76 0.53 79 1008.1
20260506140038 17 162 11.3 22.5 0.00 0.76 0.53 79 1008.2
20260506134537 17 167 9.7 17.7 0.05 0.99 0.53 80 1008.3
20260506133036 17 167 11.3 24.1 0.05 0.99 0.53 81 1008.3
20260506131542 17 173 9.7 16.1 0.05 0.99 0.53 82 1008.6
20260506130034 17 196 9.7 20.9 0.05 0.99 0.53 83 1008.7
20260506124534 17 167 14.5 25.7 0.00 1.14 0.51 84 1008.8
20260506123032 17 229 12.9 30.6 0.00 1.14 0.51 84 1008.7
20260506121531 17 197 16.1 27.4 0.00 1.14 0.51 84 1008.6
20260506120030 17 182 11.3 17.7 0.00 1.14 0.51 83 1008.7
20260506114534 17 168 12.9 22.5 0.00 1.14 0.51 79 1008.7
20260506113022 16 161 12.9 29.0 0.03 1.14 0.51 76 1008.7
20260506111519 16 180 14.5 29.0 0.10 1.14 0.51 74 1008.8
20260506110021 16 185 12.9 24.1 0.18 1.14 0.51 71 1008.8
20260506104517 16 201 11.3 17.7 0.18 1.14 0.51 69 1009.0
20260506103017 16 199 8.0 14.5 0.15 1.12 0.48 72 1009.0
20260506101518 16 179 4.8 11.3 0.10 1.04 0.41 73 1009.2
20260506100022 16 148 1.6 11.3 0.03 0.97 0.33 72 1009.3
20260506094513 16 182 4.8 12.9 0.03 0.97 0.33 71 1009.4
20260506093011 16 144 9.7 14.5 0.03 0.97 0.33 72 1009.4
20260506091510 16 149 9.7 16.1 0.00 0.94 0.30 71 1009.5
20260506090009 16 132 8.0 14.5 0.00 0.94 0.30 70 1009.3
20260506084508 16 167 8.0 16.1 0.05 0.94 0.30 64 1009.3
20260506083005 16 164 8.0 19.3 0.05 0.94 0.30 63 1009.0
20260506081506 16 173 8.0 14.5 0.05 0.94 0.30 60 1009.0
20260506073058 15 138 8.0 22.5 0.03 0.89 0.25 62 1008.7
20260506071559 15 134 9.7 14.5 0.05 0.89 0.23 63 1008.9
20260506061546 15 62 6.4 14.5 0.15 0.84 0.20 72 1008.8
20260506044539 15 67 3.2 12.9 0.00 0.69 0.05 64 1009.0
20260506043031 14 38 6.4 12.9 0.00 0.69 0.05 64 1008.9
20260506041525 14 41 4.8 8.0 0.00 0.69 0.05 64 1009.0
20260506040024 14 40 6.4 9.7 0.00 0.69 0.05 65 1009.1
20260506034523 14 42 4.8 11.3 0.00 0.69 0.05 65 1009.3
20260506033031 14 58 4.8 9.7 0.03 0.69 0.05 65 1009.3
20260506031530 14 40 4.8 8.0 0.03 0.69 0.05 66 1009.5
20260506030041 14 41 4.8 8.0 0.03 0.69 0.05 66 1009.6
20260506024525 14 41 4.8 8.0 0.00 0.66 0.03 66 1009.7
20260506023016 14 44 3.2 6.4 0.00 0.66 0.03 66 1009.8
20260506021515 14 57 3.2 8.0 0.00 0.66 0.03 66 1010.0
20260506020015 14 46 3.2 8.0 0.00 0.66 0.03 66 1010.0
20260506014514 14 51 4.8 8.0 0.00 0.66 0.03 66 1010.1
20260506013013 14 59 4.8 8.0 0.00 0.66 0.03 65 1010.1
20260506011515 14 66 3.2 12.9 0.00 0.66 0.03 65 1009.9
20260506010011 14 50 3.2 9.7 0.00 0.66 0.03 64 1009.9
20260506004524 14 35 4.8 9.7 0.00 0.66 0.03 64 1010.0
20260506003006 14 22 1.6 8.0 0.00 0.66 0.03 64 1010.0
20260506001502 14 24 3.2 8.0 0.00 0.66 0.03 64 1010.2
20260506000107 14 25 1.6 4.8 0.00 0.66 0.03 64 1010.2
20260505234600 14 25 1.6 3.2 0.00 0.66 0.03 64 1010.5
20260505233116 13 25 3.2 8.0 0.00 0.66 0.03 64 1010.6
20260505231555 13 26 1.6 9.7 0.00 0.66 0.03 64 1010.6
20260505230054 13 25 6.4 9.7 0.00 0.66 0.03 64 1010.8
20260505224552 13 28 3.2 6.4 0.03 0.66 0.03 64 1010.8
20260505223052 13 28 4.8 9.7 0.03 0.66 0.03 64 1010.9
20260505221558 13 342 6.4 9.7 0.05 0.66 0.03 65 1011.0
20260505220048 13 342 4.8 9.7 0.05 0.66 0.03 66 1010.9